This demonstration page uses our WeatherBlox Daily Observations layout. Learn more.

Left ArrowRight Arrow

Hourly Observations for January 7, 2015

Temp ( °F °C ) Dew Point ( °F °C ) Humidity (%) Winds ( mph kmh ) Pressure ( in mb ) Visibility ( mi km ) Precip ( " mm )
12:51 am 00:51 Clear 47 8.3 26 -3.3 44 44 ESE 10 17 30.25 1025 10 16 N/A
1:51 am 01:51 Clear 47 8.3 26 -3.3 44 44 SE 12 19 30.25 1024 10 16 N/A
2:51 am 02:51 Clear 46 7.8 25 -3.9 44 44 SE 12 19 30.25 1024 10 16 N/A
3:51 am 03:51 Clear 47 8.3 26 -3.3 44 44 ESE 15 24 30.25 1024 10 16 N/A
4:51 am 04:51 Clear 47 8.3 25 -3.9 42 42 SE 13 20 30.24 1024 10 16 N/A
5:51 am 05:51 Clear 44 6.7 27 -2.8 51 51 SE 14 22 30.27 1025 10 16 N/A
6:51 am 06:51 Clear 45 7.2 28 -2.2 52 52 SSE 12 19 30.29 1026 10 16 N/A
7:51 am 07:51 Sunny 44 6.7 28 -2.2 53 53 SE 14 22 30.32 1027 10 16 N/A
8:51 am 08:51 Sunny 49 9.4 29 -1.7 46 46 SE 13 20 30.34 1028 10 16 N/A
9:51 am 09:51 Sunny 55 12.8 29 -1.7 37 37 ESE 12 19 30.33 1027 10 16 N/A
10:51 am 10:51 Sunny 57 13.9 30 -1.1 36 36 ESE 9 15 30.32 1027 10 16 N/A
11:51 am 11:51 Sunny 61 16.1 29 -1.7 30 30 ESE 12 19 30.29 1026 10 16 N/A
12:51 pm 12:51 Sunny 64 17.8 29 -1.7 27 27 SE 9 15 30.26 1025 10 16 N/A
1:51 pm 13:51 Sunny 66 18.9 30 -1.1 26 26 SE 8 13 30.22 1023 10 16 N/A
2:51 pm 14:51 Sunny 70 21.1 32 undefined 25 25 ESE 12 19 30.20 1023 10 16 N/A
3:51 pm 15:51 Sunny 69 20.6 31 -0.6 24 24 SE 18 30 30.21 1023 10 16 N/A
4:51 pm 16:51 Sunny 67 19.4 30 -1.1 25 25 SE 13 20 30.21 1023 10 16 N/A
5:51 pm 17:51 Clear 62 16.7 29 -1.7 29 29 SSE 13 20 30.23 1024 10 16 N/A
6:51 pm 18:51 Clear 58 14.4 30 -1.1 35 35 SSE 9 15 30.25 1024 10 16 N/A
7:51 pm 19:51 Clear 55 12.8 30 -1.1 38 38 SE 10 17 30.28 1025 10 16 N/A
8:51 pm 20:51 Clear 54 12.2 32 undefined 43 43 ESE 10 17 30.30 1026 10 16 N/A
9:51 pm 21:51 Clear 51 10.6 32 undefined 48 48 ESE 12 19 30.32 1027 10 16 N/A
10:51 pm 22:51 Clear 50 10 30 -1.1 46 46 SE 13 20 30.32 1027 10 16 N/A
11:51 pm 23:51 Clear 47 8.3 28 -2.2 48 48 SSE 14 22 30.32 1027 10 16 N/A

Powered by AerisWeather